Date String (YYYY-MM-DD hh:mm:ss) UTC,Instrument flags,Ambient pressure (hPa),Sample flow (lpm),Bypass flow (lpm),Sample temperature (°C),Ambient temperature (°C),ASC tube jacket temperature (°C),LED temperature (°C),Box temperature (°C),Sample RH (%),Span deviation,Mass concentration (μg/m³),Mass concentration (μg/m³),Mass concentration (μg/m³)
DateTimeUTC,F1_M11,P_M11,Q1_M11,Q2_M11,T1_M11,T2_M11,T3_M11,T4_M11,T5_M11,U1_M11,ZSPAN_M11,X0_M11,X2_M11,X1_M11
2022-09-05 11:00:00,,0826.4,4.99,0.00,30.4,27.3,00.0,39.1,32.1,12.6,0000.0,0010.98,0005.23,0004.43
2022-09-05 11:01:00,,0826.4,5.02,0.00,30.4,27.4,00.0,39.1,32.0,13.6,0000.0,0011.66,0005.25,0004.47
2022-09-05 11:02:00,,0826.4,5.00,0.00,30.3,27.7,00.0,39.1,32.0,13.5,0000.0,0011.90,0005.38,0004.55
2022-09-05 11:03:00,,0826.4,4.99,0.00,30.3,28.0,00.0,39.1,31.9,13.2,0000.0,0011.95,0005.43,0004.60
2022-09-05 11:04:00,,0826.3,5.01,0.00,30.2,28.2,00.0,39.0,32.0,13.1,0000.0,0011.97,0005.43,0004.61
2022-09-05 11:05:00,,0826.4,4.99,0.00,30.2,28.4,00.0,39.0,32.0,14.1,0000.0,0012.13,0005.51,0004.69
2022-09-05 11:06:00,,0826.4,5.00,0.00,30.2,28.6,00.0,39.0,32.0,14.2,0000.0,0012.21,0005.66,0004.85
2022-09-05 11:07:00,,0826.4,5.01,0.00,30.2,28.7,00.0,39.0,32.0,13.7,0000.0,0012.38,0005.78,0004.95
2022-09-05 11:08:00,,0826.4,5.01,0.00,30.2,28.9,00.0,39.0,32.0,14.3,0000.0,0012.74,0005.89,0005.06
2022-09-05 11:09:00,,0826.4,4.98,0.00,30.2,28.9,00.0,39.0,32.1,13.8,0000.0,0013.40,0006.05,0005.22
2022-09-05 11:10:00,,0826.4,5.01,0.00,30.3,29.0,00.0,39.1,32.1,13.3,0000.0,0013.62,0006.09,0005.27
2022-09-05 11:11:00,,0826.5,5.01,0.00,30.3,29.1,00.0,39.1,32.1,13.6,0000.0,0015.00,0006.15,0005.33
2022-09-05 11:12:00,,0826.5,5.00,0.00,30.3,29.1,00.0,39.1,32.1,14.1,0000.0,0014.79,0006.25,0005.41
2022-09-05 11:13:00,,0826.4,5.00,0.00,30.3,29.2,00.0,39.1,32.2,14.3,0000.0,0014.96,0006.32,0005.48
2022-09-05 11:14:00,,0826.5,5.00,0.00,30.4,29.3,00.0,39.1,32.2,14.2,0000.0,0015.17,0006.47,0005.60
2022-09-05 11:15:00,,0826.5,5.01,0.00,30.4,29.3,00.0,39.1,32.2,14.6,0000.0,0014.93,0006.69,0005.80
2022-09-05 11:16:00,,0826.5,4.99,0.00,30.4,29.3,00.0,39.1,32.2,14.8,0000.0,0014.89,0006.83,0005.94
2022-09-05 11:17:00,,0826.5,5.01,0.00,30.4,29.4,00.0,39.2,32.3,15.2,0000.0,0015.08,0006.96,0006.06
2022-09-05 11:18:00,,0826.5,5.01,0.00,30.4,29.4,00.0,39.2,32.3,15.2,0000.0,0016.11,0007.16,0006.25
2022-09-05 11:19:00,,0826.5,4.99,0.00,30.5,29.4,00.0,39.2,32.3,15.1,0000.0,0017.24,0007.38,0006.43
2022-09-05 11:20:00,,0826.5,5.01,0.00,30.5,28.5,00.0,39.2,32.2,15.2,0000.0,0017.04,0007.53,0006.54
2022-09-05 11:21:00,,0826.5,5.00,0.00,30.4,27.4,00.0,39.2,32.1,15.1,0000.0,0018.30,0007.83,0006.77
2022-09-05 11:22:00,,0826.5,4.99,0.00,30.4,27.3,00.0,39.1,32.0,15.2,0000.0,0018.12,0008.08,0007.00
2022-09-05 11:23:00,,0826.5,5.00,0.00,30.3,27.5,00.0,39.1,31.9,15.3,0000.0,0018.70,0008.33,0007.20
2022-09-05 11:24:00,,0826.6,4.99,0.00,30.2,27.8,00.0,39.1,31.9,15.0,0000.0,0019.17,0008.47,0007.32
2022-09-05 11:25:00,,0826.5,5.01,0.00,30.2,28.1,00.0,39.0,31.9,14.9,0000.0,0020.00,0008.56,0007.38
2022-09-05 11:26:00,,0826.5,5.00,0.00,30.2,28.3,00.0,39.0,31.9,14.8,0000.0,0020.23,0008.56,0007.37
2022-09-05 11:27:00,,0826.5,5.00,0.00,30.2,28.5,00.0,39.0,31.9,14.3,0000.0,0020.32,0008.50,0007.31
2022-09-05 11:28:00,,0826.5,5.00,0.00,30.2,28.6,00.0,39.0,32.0,14.2,0000.0,0020.46,0008.39,0007.19
2022-09-05 11:29:00,,0826.5,5.00,0.00,30.2,28.7,00.0,39.0,32.0,14.2,0000.0,0020.06,0008.24,0007.03
2022-09-05 11:30:00,,0826.5,4.98,0.00,30.2,28.8,00.0,39.0,32.0,14.1,0000.0,0018.91,0008.11,0006.90
2022-09-05 11:31:00,,0826.5,5.00,0.00,30.2,28.9,00.0,39.0,32.0,14.1,0000.0,0019.32,0007.97,0006.76
2022-09-05 11:32:00,,0826.5,5.00,0.00,30.2,29.0,00.0,39.0,32.0,14.0,0000.0,0018.55,0007.81,0006.62
2022-09-05 11:33:00,,0826.5,5.01,0.00,30.3,29.0,00.0,39.0,32.1,14.0,0000.0,0017.73,0007.62,0006.45
2022-09-05 11:34:00,,0826.6,5.00,0.00,30.3,29.1,00.0,39.0,32.1,13.9,0000.0,0016.54,0007.40,0006.29
2022-09-05 11:35:00,,0826.6,4.99,0.00,30.3,29.1,00.0,39.1,32.1,13.8,0000.0,0016.08,0007.21,0006.14
2022-09-05 11:36:00,,0826.6,5.00,0.00,30.3,29.2,00.0,39.1,32.2,13.5,0000.0,0016.11,0007.04,0006.03
2022-09-05 11:37:00,,0826.6,5.01,0.00,30.3,29.2,00.0,39.1,32.2,13.3,0000.0,0016.19,0006.96,0005.91
2022-09-05 11:38:00,,0826.6,4.99,0.00,30.4,29.3,00.0,39.1,32.2,13.4,0000.0,0016.47,0006.92,0005.83
2022-09-05 11:39:00,,0826.6,5.01,0.00,30.4,29.3,00.0,39.1,32.2,13.2,0000.0,0015.66,0006.89,0005.75
2022-09-05 11:40:00,,0826.6,5.00,0.00,30.4,29.4,00.0,39.2,32.3,13.6,0000.0,0015.34,0006.89,0005.71
2022-09-05 11:41:00,,0826.6,5.00,0.00,30.4,29.4,00.0,39.2,32.3,13.9,0000.0,0015.83,0006.86,0005.70
2022-09-05 11:42:00,,0826.6,4.99,0.00,30.5,29.4,00.0,39.2,32.3,14.0,0000.0,0015.41,0006.84,0005.70
2022-09-05 11:43:00,,0826.7,4.99,0.00,30.5,29.1,00.0,39.2,32.3,14.3,0000.0,0015.07,0006.83,0005.72
2022-09-05 11:44:00,,0826.7,4.99,0.00,30.5,27.6,00.0,39.2,32.2,14.5,0000.0,0014.75,0006.86,0005.79
2022-09-05 11:45:00,,0826.7,5.01,0.00,30.4,27.1,00.0,39.1,32.1,14.6,0000.0,0014.91,0006.96,0005.87
2022-09-05 11:46:00,,0826.7,4.99,0.00,30.3,27.3,00.0,39.1,32.0,14.9,0000.0,0014.99,0007.06,0005.96
2022-09-05 11:47:00,,0826.7,5.00,0.00,30.3,27.5,00.0,39.1,31.9,15.2,0000.0,0014.15,0007.18,0006.09
2022-09-05 11:48:00,,0826.7,5.01,0.00,30.2,27.9,00.0,39.0,31.9,15.3,0000.0,0013.70,0007.35,0006.26
2022-09-05 11:49:00,,0826.7,5.01,0.00,30.2,28.1,00.0,39.0,31.9,15.4,0000.0,0013.51,0007.43,0006.38
2022-09-05 11:50:00,,0826.7,5.00,0.00,30.2,28.3,00.0,39.0,31.9,15.4,0000.0,0013.42,0007.58,0006.55
2022-09-05 11:51:00,,0826.7,5.00,0.00,30.2,28.5,00.0,39.0,32.0,15.4,0000.0,0013.14,0007.63,0006.70
2022-09-05 11:52:00,,0826.7,5.00,0.00,30.2,28.6,00.0,39.0,32.0,15.4,0000.0,0012.45,0007.67,0006.79
2022-09-05 11:53:00,,0826.7,5.01,0.00,30.2,28.8,00.0,39.0,32.0,15.3,0000.0,0012.02,0007.70,0006.85
2022-09-05 11:54:00,,0826.7,5.00,0.00,30.2,28.8,00.0,39.0,32.0,15.2,0000.0,0011.87,0007.71,0006.88
2022-09-05 11:55:00,,0826.7,4.99,0.00,30.2,28.9,00.0,39.0,32.0,15.2,0000.0,0011.80,0007.73,0006.90
2022-09-05 11:56:00,,0826.7,5.01,0.00,30.2,29.0,00.0,39.0,32.0,15.1,0000.0,0011.71,0007.70,0006.89
2022-09-05 11:57:00,,0826.7,5.01,0.00,30.3,29.0,00.0,39.0,32.1,15.1,0000.0,0012.36,0007.67,0006.87
2022-09-05 11:58:00,,0826.7,5.01,0.00,30.3,29.1,00.0,39.0,32.1,15.1,0000.0,0012.69,0007.64,0006.84
2022-09-05 11:59:00,,0826.7,4.99,0.00,30.3,29.1,00.0,39.1,32.1,15.1,0000.0,0012.93,0007.59,0006.79
